Location: Friedrichshafen
(47.6598°N, 9.4819°E)
Time: 17:58:57
(UTC+02:00)

ISS - Pass Details

Date: 05 January 2018
Orbit: 401 x 409 km, 51.6° (Epoch: 19 August)

Event Time Altitude Azimuth Distance (km) Brightness Sun altitude
Exits shadow 06:10:37 42° 358° (N) 622 -3.1 -19.2°
Drops below altitude 10° 06:13:49 10° 67° (ENE) 1,516 -0.2 -18.7°
Sets 06:16:00 0° 75° (ENE) 2,385 1.2 -18.4°
